Weather Roundup
Issued by NWS Chicago, IL

Home | Current Version | Previous Version | Graphics & Text | Print | Product List | Glossary On
Versions: 1 2 3 4 5 6 7 8 9 10 11 12 13 14 15 16 17 18 19 20 21 22 23 24 25 26 27 28 29 30 31 32 33 34 35 36 37 38 39 40 41 42 43 44 45 46 47 48 49 50
000
NZUS59 KLOT 020710
HRRLOT

CHICAGO AREA WEATHER ROUNDUP
NATIONAL WEATHER SERVICE CHICAGO/ROMEOVILLE IL
100 AM CST MON MAR 02 2015

NOTE: "FAIR" INDICATES FEW OR NO CLOUDS BELOW 12,000 FEET WITH NO
SIGNIFICANT WEATHER AND/OR OBSTRUCTIONS TO VISIBILITY.

* THESE STATIONS ARE NOT UNDER NWS QUALITY CONTROL. THEY ALSO MAY NOT
  REPORT WEATHER SUCH AS PRECIPITATION OR FOG.

ILZ005-006-012>014-019>023-020800-
NORTHEAST ILLINOIS

CITY           SKY/WX    TMP DP  RH WIND       PRES   REMARKS
OHARE          CLEAR     18   8  65 W12       30.38R WCI   5
MIDWAY         CLEAR     19  10  68 W8        30.40R WCI   9
AURORA         CLEAR      8   1  73 W7        30.41R WCI  -3
LANSING*       PTCLDY    17  10  73 W6        30.40R WCI   9
JOLIET*        CLEAR     13   7  76 W5        30.43R WCI   6
WAUKEGAN       CLEAR     17   7  64 W6        30.36R WCI   9
DUPAGE AIRPORT CLEAR     13   5  70 W10       30.39R WCI   0
WHEELING       CLEAR     18   7  62 W8        30.40R WCI   8
KANKAKEE*      PTCLDY    10   6  86 W10       30.42R WCI  -4
MORRIS*        CLEAR      9   6  85 W12       30.43R WCI  -5
LEWIS AIRPORT* CLEAR     12   6  76 W8        30.42R WCI   1
NORTHERLY IS     N/A     21  10  62 W10         N/A  WCI  10
$$

WIZ051-052-058>065-066-070>072-020800-
SOUTHEAST WISCONSIN

CITY           SKY/WX    TMP DP  RH WIND       PRES   REMARKS
MILWAUKEE      CLEAR     20   6  55 W9        30.34R WCI   9
KENOSHA*       CLEAR     16   6  65 W12       30.36R WCI   3
RACINE*        CLEAR     17   6  62 W9        30.37R WCI   6
BURLINGTON     CLEAR     13   5  70 SW5       30.37R WCI   5
WAUKESHA       CLEAR     16   7  67 SW8       30.35R WCI   5
WEST BEND      CLEAR     18   7  62 W10       30.31R WCI   6
$$

INZ001>003-010>013-019-020-020800-
NORTHWEST INDIANA

CITY           SKY/WX    TMP DP  RH WIND       PRES   REMARKS
GARY*          PTCLDY    19   8  62 W12       30.40R WCI   6
MICHIGAN CITY* NOT AVBL
RENSSELAER*    NOT AVBL
VALPARAISO     CLEAR     15  10  80 W10       30.37R WCI   2
$$

LMZ740>746-020800-
SOUTHERN LAKE MICHIGAN

STATION/POSITION TIME  SKY/WX   TEMP WIND        PRES    VSBY
                                AIR  DIR/SP/G
                 (UTC)          (F)  (DEG/KT/KT) (MB)    (MI)
HARRISON CRIB    0700            21  280/ 17/ 20   N/A
BURNHAM HARBOR   0700            21  280/  9/ 13   N/A
CALUMET HARBOR   0700            19  260/  6/ 10 1027.6R
BURNS HARBOR     NOT AVBL
MICHIGAN CITY    0700            19  240/ 12/ 14   N/A
$$

ABBREVIATIONS USED IN REMARKS
   TC - TEMPERATURE IN CELSIUS
  WCI - WIND CHILL INDEX
   HX - HEAT INDEX
  VSB - VISIBILITY
$$



USA.gov is the U.S. government's official web portal to all federal, state and local government web resources and services.